KJ4AJP Weather Reports


time (UTC)temp
C
wind
direction
speed
KPH
gust
KPH
rain 1hr
cm
rain 24hr
cm
rain mn
cm
humidity
%
barometer
mb
20260507193729 21 32 1.6 1.6 0.00 0.00 0.00 41 1016.0
20260507193226 21 82 1.6 1.6 0.00 0.00 0.00 36 1015.8
20260507192722 21 41 1.6 3.2 0.00 0.00 0.00 39 1015.9
20260507192219 21 1 1.6 3.2 0.00 0.00 0.00 36 1016.0
20260507191714 21 55 0.0 1.6 0.00 0.00 0.00 39 1016.4
20260507191212 21 41 0.0 1.6 0.00 0.00 0.00 43 1016.3
20260507190708 20 35 1.6 1.6 0.00 0.00 0.00 42 1016.4
20260507190207 20 32 1.6 1.6 0.00 0.00 0.00 40 1016.3
20260507185705 20 41 1.6 1.6 0.00 0.00 0.00 38 1016.3
20260507185202 20 42 1.6 1.6 0.00 0.00 0.00 41 1016.3
20260507184659 20 55 1.6 1.6 0.00 0.00 0.00 40 1016.5
20260507184157 20 10 3.2 4.8 0.00 0.00 0.00 38 1016.5
20260507183653 20 235 4.8 4.8 0.00 0.00 0.00 37 1016.6
20260507183150 20 85 1.6 1.6 0.00 0.00 0.00 40 1016.4
20260507182648 20 53 0.0 1.6 0.00 0.00 0.00 44 1016.3
20260507182143 20 45 1.6 1.6 0.00 0.00 0.00 46 1016.5
20260507181640 20 317 3.2 3.2 0.00 0.00 0.00 41 1016.7
20260507181136 20 33 1.6 1.6 0.00 0.00 0.00 37 1016.9
20260507180632 19 41 3.2 3.2 0.00 0.00 0.00 41 1016.8
20260507180130 20 38 3.2 3.2 0.00 0.00 0.00 42 1016.7
20260507175625 19 33 1.6 1.6 0.00 0.00 0.00 42 1016.8
20260507175123 19 29 0.0 1.6 0.00 0.00 0.00 37 1016.9
20260507174620 19 62 1.6 3.2 0.00 0.00 0.00 37 1017.0
20260507174118 19 243 3.2 3.2 0.00 0.00 0.00 41 1016.9
20260507173615 19 52 0.0 0.0 0.00 0.00 0.00 42 1016.9
20260507173112 20 57 0.0 1.6 0.00 0.00 0.00 40 1017.0
20260507172607 20 77 1.6 1.6 0.00 0.00 0.00 38 1017.2
20260507172106 19 45 1.6 1.6 0.00 0.00 0.00 45 1017.1
20260507171600 20 63 0.0 1.6 0.00 0.00 0.00 38 1017.2
20260507171057 19 27 0.0 1.6 0.00 0.00 0.00 42 1017.2
20260507170554 18 17 1.6 1.6 0.00 0.00 0.00 40 1017.4
20260507170051 18 353 3.2 4.8 0.00 0.00 0.00 43 1017.5
20260507165547 19 22 4.8 6.4 0.00 0.00 0.00 43 1017.5
20260507165044 19 31 3.2 3.2 0.00 0.00 0.00 44 1017.5
20260507164540 19 54 0.0 0.0 0.00 0.00 0.00 39 1017.5
20260507164037 19 54 0.0 1.6 0.00 0.00 0.00 47 1017.5
20260507163534 18 11 3.2 3.2 0.00 0.00 0.00 43 1017.5
20260507163032 18 52 0.0 0.0 0.00 0.00 0.00 45 1017.5
20260507162526 18 44 1.6 1.6 0.00 0.00 0.00 45 1017.6
20260507162024 18 201 3.2 3.2 0.00 0.00 0.00 43 1017.8
20260507161520 18 43 3.2 4.8 0.00 0.00 0.00 42 1017.7
20260507161017 18 29 1.6 3.2 0.00 0.00 0.00 45 1017.7
20260507160513 18 45 0.0 1.6 0.00 0.00 0.00 45 1017.7
20260507160010 18 67 1.6 1.6 0.00 0.00 0.00 42 1017.8
20260507155505 18 61 0.0 1.6 0.00 0.00 0.00 42 1018.0
20260507155002 18 48 0.0 0.0 0.00 0.00 0.00 43 1017.9
20260507154459 18 53 0.0 0.0 0.00 0.00 0.00 45 1017.8
20260507153956 18 57 0.0 0.0 0.00 0.00 0.00 46 1018.0
20260507153453 18 58 0.0 0.0 0.00 0.00 0.00 45 1017.8
20260507152949 17 63 0.0 0.0 0.00 0.00 0.00 43 1017.9
20260507152445 17 85 1.6 1.6 0.00 0.00 0.00 46 1017.9
20260507151941 17 42 1.6 1.6 0.00 0.00 0.00 50 1017.7
20260507151438 17 44 1.6 1.6 0.00 0.00 0.00 53 1017.8
20260507150934 17 27 1.6 3.2 0.00 0.00 0.00 50 1017.7
20260507150432 17 73 3.2 3.2 0.00 0.00 0.00 48 1017.7
20260507145928 17 22 1.6 3.2 0.00 0.00 0.00 50 1018.0
20260507145424 16 64 1.6 1.6 0.00 0.00 0.00 52 1017.9
20260507144921 16 34 1.6 3.2 0.00 0.00 0.00 57 1017.8
20260507144418 16 45 1.6 1.6 0.00 0.00 0.00 54 1017.8
20260507143915 16 63 0.0 1.6 0.00 0.00 0.00 57 1017.9
20260507143412 15 41 1.6 1.6 0.00 0.00 0.00 64 1017.9
20260507142908 15 37 1.6 3.2 0.00 0.00 0.00 61 1018.0
20260507142404 15 46 1.6 1.6 0.00 0.00 0.00 59 1017.8
20260507141902 15 53 0.0 0.0 0.00 0.00 0.00 64 1017.9
20260507141358 14 50 0.0 1.6 0.00 0.00 0.00 63 1018.1
20260507140854 13 42 1.6 3.2 0.00 0.00 0.00 65 1018.0
20260507140351 13 67 0.0 1.6 0.00 0.00 0.00 69 1018.2
20260507135849 13 40 0.0 1.6 0.00 0.00 0.00 72 1017.9
20260507135346 12 63 0.0 0.0 0.00 0.00 0.00 72 1017.7
20260507134843 12 50 0.0 0.0 0.00 0.00 0.00 74 1017.6
20260507134339 12 51 0.0 1.6 0.00 0.00 0.00 75 1017.7
20260507133835 12 48 0.0 0.0 0.00 0.00 0.00 77 1017.7
20260507133331 11 61 1.6 1.6 0.00 0.00 0.00 78 1017.8
20260507132830 11 82 1.6 1.6 0.00 0.00 0.00 82 1017.7
20260507132325 11 49 0.0 0.0 0.00 0.00 0.00 84 1017.8
20260507131823 10 42 0.0 0.0 0.00 0.00 0.00 86 1017.8
20260507131319 10 53 0.0 0.0 0.00 0.00 0.00 91 1017.7
20260507130816 10 53 0.0 0.0 0.00 0.00 0.00 97 1017.8
20260507130314 10 50 0.0 0.0 0.00 0.00 0.00 99 1017.6
20260507125813 9 52 0.0 0.0 0.00 0.00 0.00 99 1017.7
20260507125309 9 34 3.2 3.2 0.00 0.00 0.00 99 1017.6
20260507124806 9 51 0.0 0.0 0.00 0.00 0.00 99 1017.4
20260507124303 8 54 0.0 0.0 0.00 0.00 0.00 99 1017.5
20260507123801 8 51 0.0 0.0 0.00 0.00 0.00 99 1017.5
20260507123259 8 48 0.0 0.0 0.00 0.00 0.00 99 1017.3
20260507122754 8 48 0.0 0.0 0.00 0.00 0.00 99 1017.3
20260507122249 8 47 0.0 0.0 0.00 0.00 0.00 99 1017.3
20260507121746 8 45 0.0 1.6 0.00 0.00 0.00 99 1017.1
20260507121242 7 48 0.0 0.0 0.00 0.00 0.00 99 1017.1
20260507120738 7 48 0.0 0.0 0.00 0.00 0.00 99 1017.2
20260507120235 7 48 0.0 0.0 0.00 0.00 0.00 99 1017.0
20260507115731 7 48 0.0 0.0 0.00 0.00 0.00 99 1016.9
20260507115227 7 48 0.0 0.0 0.00 0.00 0.00 99 1017.0
20260507114723 6 48 0.0 0.0 0.00 0.00 0.00 99 1017.0
20260507114221 6 48 0.0 0.0 0.00 0.00 0.00 99 1016.6
20260507113718 6 48 0.0 0.0 0.00 0.00 0.00 99 1016.7
20260507113215 6 48 0.0 0.0 0.00 0.00 0.00 99 1016.7
20260507112712 6 48 0.0 0.0 0.00 0.00 0.00 99 1016.7
20260507112209 6 48 0.0 0.0 0.00 0.00 0.00 99 1016.7
20260507111706 6 48 0.0 0.0 0.00 0.00 0.00 99 1016.6
20260507111203 6 48 0.0 0.0 0.00 0.00 0.00 99 1016.4
20260507110659 6 48 0.0 0.0 0.00 0.00 0.00 99 1016.7
20260507110156 6 48 0.0 0.0 0.00 0.00 0.00 99 1016.7
20260507105653 6 48 0.0 0.0 0.00 0.00 0.00 99 1016.4
20260507105149 6 48 0.0 0.0 0.00 0.00 0.00 99 1016.5
20260507104646 7 48 0.0 0.0 0.00 0.00 0.00 99 1016.6
20260507104142 7 48 0.0 0.0 0.00 0.00 0.00 99 1016.6
20260507103638 7 48 0.0 0.0 0.00 0.00 0.00 99 1016.6
20260507103136 7 48 0.0 0.0 0.00 0.00 0.00 99 1016.5
20260507102632 7 48 0.0 0.0 0.00 0.00 0.00 99 1016.6
20260507102128 7 48 0.0 0.0 0.00 0.00 0.00 99 1016.6
20260507101624 7 48 0.0 0.0 0.00 0.00 0.00 99 1016.4
20260507101120 7 48 0.0 0.0 0.00 0.00 0.00 99 1016.5
20260507100618 7 48 0.0 0.0 0.00 0.00 0.00 99 1016.4
20260507100116 7 48 0.0 0.0 0.00 0.00 0.00 99 1016.5
20260507095613 7 48 0.0 0.0 0.00 0.00 0.00 99 1016.4
20260507095110 7 48 0.0 0.0 0.00 0.00 0.00 99 1016.3
20260507094606 7 48 0.0 0.0 0.00 0.00 0.00 99 1016.3
20260507094103 7 48 0.0 0.0 0.00 0.00 0.00 99 1016.5
20260507093600 7 48 0.0 0.0 0.00 0.00 0.00 99 1016.6
20260507093059 7 48 0.0 0.0 0.00 0.00 0.00 99 1016.4
20260507092555 7 48 0.0 0.0 0.00 0.00 0.00 99 1016.3
20260507092052 7 48 0.0 0.0 0.00 0.00 0.00 99 1016.1
20260507091549 7 48 0.0 0.0 0.00 0.00 0.00 99 1016.0
20260507091045 7 48 0.0 0.0 0.00 0.00 0.00 99 1016.3
20260507090541 7 48 0.0 0.0 0.00 0.00 0.00 99 1015.9
20260507090038 7 48 0.0 0.0 0.00 0.00 0.00 99 1015.6
20260507085535 7 48 0.0 0.0 0.00 0.00 0.00 99 1015.7
20260507085031 7 48 0.0 0.0 0.00 0.00 0.00 99 1015.6
20260507084528 7 48 0.0 0.0 0.00 0.00 0.00 99 1015.7
20260507084025 8 48 0.0 0.0 0.00 0.00 0.00 99 1015.7
20260507083521 8 48 0.0 0.0 0.00 0.00 0.00 99 1015.7
20260507083019 8 48 0.0 0.0 0.00 0.00 0.00 99 1015.8
20260507082514 8 48 0.0 0.0 0.00 0.00 0.00 99 1015.7
20260507082011 8 48 0.0 0.0 0.00 0.00 0.00 99 1015.8
20260507081507 8 48 0.0 0.0 0.00 0.00 0.00 99 1015.8
20260507081004 8 48 0.0 0.0 0.00 0.00 0.00 99 1015.6
20260507080500 8 48 0.0 0.0 0.00 0.00 0.00 99 1015.6
20260507075955 8 48 0.0 0.0 0.00 0.00 0.00 99 1015.8
20260507075452 8 48 0.0 0.0 0.00 0.00 0.00 99 1015.7
20260507074948 8 48 0.0 0.0 0.00 0.00 0.00 99 1016.0
20260507074445 8 48 0.0 0.0 0.00 0.00 0.00 99 1015.9
20260507073944 8 48 0.0 0.0 0.00 0.00 0.00 99 1016.0
20260507073439 9 48 0.0 0.0 0.00 0.00 0.00 99 1015.8
20260507072936 9 48 0.0 0.0 0.00 0.00 0.00 99 1015.7
20260507072434 9 48 0.0 0.0 0.00 0.00 0.00 99 1015.7
20260507071931 9 48 0.0 0.0 0.00 0.00 0.00 99 1015.6
20260507071428 9 48 0.0 0.0 0.00 0.00 0.00 99 1015.8
20260507070924 9 48 0.0 0.0 0.00 0.00 0.00 99 1015.9
20260507070422 9 48 0.0 0.0 0.00 0.00 0.00 99 1015.8
20260507065919 10 48 0.0 0.0 0.00 0.00 0.00 99 1015.7
20260507065416 10 48 0.0 0.0 0.00 0.00 0.00 99 1015.6
20260507064913 10 48 0.0 0.0 0.00 0.00 0.00 99 1015.8
20260507064411 10 48 0.0 0.0 0.00 0.00 0.00 99 1015.7
20260507063908 10 48 0.0 0.0 0.00 0.00 0.00 99 1015.6
20260507063406 10 48 0.0 0.0 0.00 0.00 0.00 99 1015.8
20260507062902 10 48 0.0 0.0 0.00 0.00 0.00 99 1015.8
20260507062359 10 48 0.0 0.0 0.00 0.00 0.00 99 1015.8
20260507061857 10 48 0.0 0.0 0.00 0.00 0.00 99 1015.9
20260507061355 10 48 0.0 0.0 0.00 0.00 0.00 99 1015.8
20260507060853 10 48 0.0 0.0 0.00 0.00 0.00 99 1015.8
20260507060349 10 48 0.0 0.0 0.00 0.00 0.00 99 1015.9
20260507055846 10 48 0.0 0.0 0.00 0.00 0.00 99 1016.1
20260507055341 10 48 0.0 0.0 0.00 0.00 0.00 99 1016.0
20260507054838 10 48 0.0 0.0 0.00 0.00 0.00 99 1015.9
20260507054334 10 48 0.0 0.0 0.00 0.00 0.00 99 1015.9
20260507053831 10 48 0.0 0.0 0.00 0.00 0.00 99 1016.1
20260507053329 10 48 0.0 0.0 0.00 0.00 0.00 99 1015.9
20260507052828 10 48 0.0 0.0 0.00 0.00 0.00 99 1016.1
20260507052324 10 48 0.0 0.0 0.00 0.00 0.00 99 1015.9
20260507051822 10 48 0.0 0.0 0.00 0.00 0.00 99 1015.8
20260507051319 10 48 0.0 0.0 0.00 0.00 0.00 99 1015.9
20260507050816 10 48 0.0 0.0 0.00 0.00 0.00 99 1015.9
20260507050312 10 48 0.0 0.0 0.00 0.00 0.00 99 1015.8
20260507045809 10 48 0.0 0.0 0.00 0.56 0.56 99 1015.8
20260507045307 10 48 0.0 0.0 0.00 0.56 0.56 99 1015.9
20260507044803 10 48 0.0 0.0 0.00 0.56 0.56 99 1015.7
20260507044259 10 48 0.0 0.0 0.00 0.56 0.56 99 1015.8
20260507043755 10 48 0.0 0.0 0.00 0.56 0.56 99 1015.9
20260507043252 10 48 0.0 0.0 0.00 0.56 0.56 99 1015.9
20260507042748 10 48 0.0 0.0 0.00 0.56 0.56 99 1015.9
20260507042243 10 48 0.0 0.0 0.00 0.56 0.56 99 1016.0
20260507041742 10 48 0.0 0.0 0.00 0.56 0.56 99 1016.3
20260507041238 10 48 0.0 0.0 0.00 0.56 0.56 99 1016.1
20260507040735 10 48 0.0 0.0 0.00 0.56 0.56 99 1016.1
20260507040231 10 48 0.0 0.0 0.00 0.56 0.56 99 1016.0
20260507035727 10 48 0.0 0.0 0.00 0.56 0.56 99 1015.9
20260507035223 10 48 0.0 0.0 0.00 0.56 0.56 99 1015.9
20260507034720 10 48 0.0 0.0 0.00 0.56 0.56 99 1016.1
20260507034217 10 48 0.0 0.0 0.00 0.56 0.56 99 1015.8
20260507033716 10 48 0.0 0.0 0.00 0.56 0.56 99 1015.9
20260507033213 10 48 0.0 0.0 0.00 0.56 0.56 99 1016.1
20260507032710 10 48 0.0 0.0 0.00 0.56 0.56 99 1015.8
20260507032206 10 48 0.0 0.0 0.00 0.56 0.56 99 1016.0
20260507031703 11 48 0.0 0.0 0.00 0.56 0.56 99 1015.9
20260507031159 11 48 0.0 0.0 0.00 0.56 0.56 99 1015.7
20260507030656 11 48 0.0 0.0 0.00 0.56 0.56 99 1015.3
20260507030154 11 48 0.0 0.0 0.00 0.56 0.56 99 1015.5
20260507025651 11 48 0.0 0.0 0.00 0.56 0.56 98 1015.4
20260507025148 11 48 0.0 0.0 0.00 0.56 0.56 98 1015.3
20260507024646 11 48 0.0 0.0 0.00 0.56 0.56 98 1015.2
20260507024143 11 48 0.0 0.0 0.00 0.56 0.56 98 1015.2
20260507023638 11 48 0.0 0.0 0.00 0.56 0.56 98 1015.4
20260507023136 11 48 0.0 0.0 0.00 0.56 0.56 98 1014.9
20260507022633 11 48 0.0 0.0 0.00 0.56 0.56 98 1015.0
20260507022128 11 48 0.0 0.0 0.00 0.56 0.56 98 1015.5
20260507021625 11 48 0.0 0.0 0.00 0.56 0.56 98 1015.5
20260507021120 11 48 0.0 0.0 0.00 0.56 0.56 98 1015.6
20260507020619 11 48 0.0 0.0 0.00 0.56 0.56 98 1015.6
20260507020115 11 48 0.0 0.0 0.00 0.56 0.56 98 1015.5
20260507015613 11 48 0.0 0.0 0.00 0.56 0.56 98 1015.2
20260507015110 11 48 0.0 0.0 0.00 0.56 0.56 98 1015.1
20260507014607 11 48 0.0 0.0 0.00 0.56 0.56 98 1015.2
20260507014102 11 48 0.0 0.0 0.00 0.56 0.56 98 1015.2
20260507013559 11 48 0.0 0.0 0.00 0.56 0.56 97 1015.1
20260507013057 11 48 0.0 0.0 0.00 0.56 0.56 97 1015.4
20260507012554 11 48 0.0 0.0 0.00 0.56 0.56 97 1015.6
20260507012049 11 48 0.0 0.0 0.00 0.56 0.56 97 1015.3
20260507011548 12 48 0.0 0.0 0.00 0.56 0.56 97 1015.4
20260507011044 12 48 0.0 0.0 0.00 0.56 0.56 97 1015.4
20260507010538 12 48 0.0 0.0 0.00 0.56 0.56 97 1015.4
20260507010034 12 48 0.0 0.0 0.00 0.56 0.56 97 1015.7
20260507005533 12 48 0.0 0.0 0.00 0.56 0.56 97 1015.4
20260507005028 12 48 0.0 0.0 0.00 0.56 0.56 96 1015.6
20260507004526 12 48 0.0 0.0 0.00 0.56 0.56 96 1015.6
20260507004023 12 48 0.0 0.0 0.00 0.56 0.56 96 1015.6
20260507003518 12 48 0.0 0.0 0.00 0.56 0.56 96 1015.8
20260507003014 12 48 0.0 0.0 0.00 0.56 0.56 96 1015.8
20260507002510 12 48 0.0 0.0 0.00 0.56 0.56 96 1015.7
20260507002007 12 48 0.0 0.0 0.00 0.56 0.56 96 1015.6
20260507001503 12 48 0.0 0.0 0.00 0.56 0.56 96 1015.8
20260507001001 12 47 0.0 0.0 0.00 0.56 0.56 96 1015.2
20260507000456 12 47 0.0 0.0 0.00 0.56 0.56 95 1015.2
20260506235952 12 47 0.0 0.0 0.00 0.56 0.56 95 1015.0
20260506235450 12 47 0.0 0.0 0.00 0.56 0.56 96 1014.9
20260506234945 12 46 0.0 0.0 0.00 0.56 0.56 96 1014.8
20260506234443 12 53 1.6 1.6 0.00 0.56 0.56 96 1014.4
20260506233940 12 55 0.0 0.0 0.00 0.56 0.56 96 1014.0
20260506233437 12 55 0.0 0.0 0.00 0.56 0.56 96 1014.2
20260506232933 12 55 0.0 0.0 0.00 0.56 0.56 96 1013.8
20260506232430 12 55 0.0 0.0 0.00 0.56 0.56 96 1014.1
20260506231925 12 55 0.0 0.0 0.00 0.56 0.56 96 1014.1
20260506231423 12 55 0.0 0.0 0.00 0.56 0.56 96 1013.8
20260506230920 12 55 0.0 0.0 0.00 0.56 0.56 96 1013.6
20260506230417 12 55 0.0 0.0 0.00 0.56 0.56 96 1013.3
20260506225913 12 55 0.0 0.0 0.00 0.56 0.56 95 1013.3
20260506225411 12 55 0.0 0.0 0.00 0.56 0.56 95 1013.2
20260506224908 12 56 0.0 0.0 0.00 0.56 0.56 95 1013.2
20260506224405 12 54 0.0 0.0 0.00 0.56 0.56 95 1013.6
20260506223901 12 50 0.0 0.0 0.00 0.56 0.56 96 1013.8
20260506223356 12 45 0.0 0.0 0.00 0.56 0.56 96 1013.7
20260506222854 12 43 0.0 0.0 0.00 0.56 0.56 95 1013.9
20260506222349 12 47 0.0 0.0 0.00 0.56 0.56 95 1013.8
20260506221847 12 47 0.0 0.0 0.13 0.56 0.56 95 1014.4
20260506221344 12 46 0.0 0.0 0.30 0.56 0.56 95 1015.0
20260506220842 12 46 0.0 0.0 0.18 0.53 0.53 94 1014.9
20260506220337 12 45 0.0 0.0 0.18 0.53 0.53 94 1015.0
20260506215834 12 49 0.0 0.0 0.00 0.51 0.51 94 1014.8
20260506215330 12 40 0.0 0.0 0.00 0.51 0.51 94 1014.8
20260506214826 12 40 0.0 0.0 0.00 0.51 0.51 94 1014.8
20260506214323 12 40 0.0 0.0 0.00 0.51 0.51 93 1014.8
20260506213821 12 40 0.0 0.0 0.00 0.51 0.51 93 1014.7
20260506213318 12 40 0.0 0.0 0.00 0.51 0.51 93 1014.7
20260506212816 12 40 0.0 0.0 0.00 0.51 0.51 93 1014.6
20260506212311 12 38 0.0 0.0 0.00 0.51 0.51 93 1014.7
20260506211806 13 47 0.0 0.0 0.00 0.51 0.51 94 1014.5
20260506211303 12 46 0.0 0.0 0.00 0.51 0.51 94 1014.6
20260506210801 12 47 0.0 0.0 0.13 0.51 0.51 94 1014.7
20260506210257 12 47 0.0 0.0 0.13 0.51 0.51 94 1014.5
20260506205754 12 47 0.0 0.0 0.18 0.48 0.48 94 1014.6
20260506205250 12 47 0.0 0.0 0.18 0.48 0.48 94 1014.8
20260506204746 12 47 0.0 0.0 0.13 0.46 0.46 93 1014.5
20260506204244 12 47 0.0 0.0 0.13 0.46 0.46 92 1014.9
20260506203742 12 47 0.0 0.0 0.00 0.43 0.43 91 1015.0
20260506203239 12 47 0.0 0.0 0.18 0.43 0.43 91 1015.0
20260506202736 12 47 0.0 0.0 0.18 0.43 0.43 91 1014.8
20260506202232 12 46 0.0 0.0 0.00 0.41 0.41 91 1015.0
20260506201729 12 46 0.0 0.0 0.00 0.41 0.41 91 1015.1
20260506201226 13 46 0.0 0.0 0.00 0.41 0.41 92 1014.9
20260506200723 13 46 0.0 0.0 0.13 0.41 0.41 91 1014.7
20260506200220 13 46 0.0 0.0 0.13 0.41 0.41 91 1014.5
20260506195716 13 45 0.0 0.0 0.00 0.38 0.38 90 1014.8
20260506195213 13 44 0.0 0.0 0.18 0.38 0.38 90 1015.3
20260506194710 13 44 0.0 0.0 0.18 0.38 0.38 89 1015.4
20260506194206 13 44 0.0 0.0 0.00 0.36 0.36 87 1015.5